Location: Sternwarte auf dem Internationalen Platz Vogelsang IP
(50.5721°N, 6.4398°E)
Time: 12:03:06
(UTC+01:00)

ACS3 Solar Sail - Pass Details

Date: 16 November 2025
Orbit: 888 x 1003 km, 97.3° (Epoch: 07 December)

Event Time Altitude Azimuth Distance (km) Brightness Sun altitude
Rises 03:32:41 0° 15° (NNE) 3,557 5.1 -40.4°
Reaches altitude 10° 03:35:10 10° 21° (NNE) 2,626 4.4 -40.0°
Enters shadow 03:37:27 24° 30° (NNE) 1,823 3.5 -39.7°
